Track TERRA SAR X now! 10-day predictions TERRA SAR X is classified as:
1 31698U 07026A 24325.47911950 .00003071 00000-0 14932-3 0 9997 2 31698 97.4447 330.4076 0001836 83.6761 276.4683 15.19161827966127